Temp_Advection
nan nan nan nan nan nan nan nan nan nan nan nan nan nan nan nan nan nan nan nan nan nan nan nan nan nan nan nan nan nan nan nan nan nan nan nan nan nan nan nan nan nan nan nan nan nan nan
nan 0 0 0 0 0 0 -0 -0 -0 -0 -0 -0 -0 -0 -0 0 0 0 -0 -0 -0 0 0 0 -0 -0 -0 -0 -0 -1 -0 -0 -0 -0 -0 -0 0 -0 -0 -0 -0 -0 -0 -0 -0 nan
nan 0 0 0 0 0 0 -0 -0 -0 -0 -0 -0 -0 -0 -0 0 0 -0 -0 -0 -0 -0 -0 -0 -0 -0 -0 -0 -0 -0 -0 -0 -0 -0 -0 -0 -0 -0 -0 -0 -0 0 -0 -0 -0 nan
nan 0 0 0 0 0 0 0 -0 0 -0 -0 -0 -0 -0 -0 -0 0 -0 -0 -0 -0 -0 -1 -0 -0 -0 -0 0 0 0 0 -0 -0 -0 -0 -0 -0 -0 -0 0 0 0 0 -0 -0 nan
nan 0 0 0 0 0 -0 -0 -0 -0 -0 -0 -0 -0 -0 -1 -1 -0 0 -0 -1 -1 -0 -0 -0 0 -0 -1 -0 -0 -0 0 0 0 -0 -0 -0 -0 0 0 -0 0 -0 0 0 0 nan
nan 0 0 0 0 -0 0 -0 -0 -0 -0 -0 -0 -0 -0 -0 -1 -0 -0 -0 -0 -0 -0 -0 -1 -0 -2 -1 0 -0 -0 0 -0 -0 -0 -0 -0 -0 0 0 0 0 0 0 -0 -0 nan
nan 0 0 0 0 -0 -0 -0 -0 -0 -0 -0 -0 -0 -0 -0 -1 -1 -1 -0 -0 -1 -3 -1 -0 -0 -1 -0 -0 -1 -0 -0 -0 -0 -0 -0 0 0 0 0 -0 0 0 -0 0 0 nan
nan 0 0 0 -0 -0 -0 -0 -0 -0 -0 -0 -0 -0 -0 -0 -0 -1 -2 -3 -2 -0 0 0 0 -0 -0 -1 -0 -0 -1 -0 -0 -0 -0 0 -0 0 0 -0 0 -0 -0 0 0 0 nan
nan 0 0 -0 -0 -0 -0 -0 -0 -0 -0 -0 -0 -0 -0 -0 -0 -1 -3 -3 0 0 0 -0 -0 -1 -0 -0 -0 -0 -1 -0 -0 -0 -0 0 0 -0 0 -0 -0 -0 -0 -0 0 -0 nan
nan 0 -0 -0 -0 -0 -0 -0 -0 -0 -0 -0 -0 -0 -0 -0 -0 -1 -2 -0 0 0 0 -1 -0 -0 -0 -0 -0 -0 -0 -0 -0 -0 -0 0 -0 -0 -0 0 0 -0 -0 0 0 -0 nan
nan -0 -0 -0 -0 -0 -0 -0 -0 -0 -0 -0 -0 -0 -1 -1 -1 -1 -0 0 0 0 0 0 -0 -1 -1 -0 -1 -1 -0 -0 -0 -0 -0 0 -0 -0 0 0 0 0 -0 -0 0 0 nan
nan -0 -0 -0 -0 -0 0 -0 -0 -0 -0 -0 -0 -0 -0 -1 -0 0 1 0 0 -0 -0 -0 -0 -0 -0 -0 -0 -1 -1 -0 -0 -0 -0 -0 -0 -0 0 -0 0 0 0 -0 -0 0 nan
nan 0 0 0 -0 -0 -0 -0 0 0 -0 -0 -0 -0 -0 -1 -0 0 0 -0 -0 -0 -0 -0 -0 -0 -0 -0 -0 -0 -0 -0 -0 -0 -0 -0 -0 -0 -0 0 -0 -0 -0 -0 -0 0 nan
nan 0 -0 -0 -0 -0 -0 0 -0 0 0 0 -0 -0 -0 0 0 0 0 -1 -1 0 -0 -0 -0 -0 -0 -0 -0 -0 -0 -0 -0 -0 -0 -0 -0 -0 -0 -0 0 -0 -0 -0 -0 -0 nan
nan -0 -0 -0 -0 -0 -0 -0 -0 -0 -0 -0 0 -0 0 0 0 0 -0 -1 0 -0 -0 -0 -0 -0 -0 -0 -0 -0 -0 -0 -0 -0 -0 -0 -0 -0 -0 -0 -0 -0 -0 -0 0 0 nan
nan 0 -0 -0 -0 -0 -0 -0 -0 -0 -0 -0 0 -0 -0 -0 -0 -1 -1 0 0 -0 -0 -0 -0 -0 -0 -0 -0 -0 -0 -0 -0 -0 0 0 -1 -0 -0 -0 -0 0 -0 -0 -0 -0 nan
nan 0 -0 -0 -0 -0 -0 -0 -0 -0 -0 -0 -0 -0 -1 -0 -1 -3 -0 0 0 -0 -0 -0 -0 -0 -0 -0 -0 -0 -0 0 -0 -0 -0 0 -0 -0 -0 -0 0 0 -0 -0 -0 -0 nan
nan 0 -0 -0 -0 -0 -0 -0 -0 -0 -0 -0 -1 -0 -1 -0 -2 -1 0 0 -0 -0 -0 -0 0 -0 -0 -0 -0 -0 -0 -0 -0 -0 -0 -0 -0 -0 -0 0 -0 0 0 -0 0 0 nan
nan 0 0 -0 -0 -0 -0 -0 -0 -0 -0 -0 -0 -0 -0 -1 -1 0 0 0 0 -0 -0 -0 -0 -0 -0 0 -0 -0 -0 -0 -0 -0 -0 -0 -0 -0 -0 0 -0 0 0 -0 -0 0 nan
nan 0 0 -0 -0 -0 -0 -0 -0 -0 -0 -0 -1 -0 -0 -2 -0 0 0 -0 -0 -0 -0 -0 -0 -0 -0 -0 -0 -0 -0 -0 -0 -1 -0 -0 -0 -0 -0 -0 0 0 0 -0 -0 -0 nan
nan 0 0 0 -0 0 0 -0 -0 0 -0 -0 -1 -0 -0 -0 -0 0 0 0 -0 -0 -0 0 -0 -0 -0 -0 -0 -0 -0 -1 -0 -0 -0 -0 -0 -0 -1 -1 0 -0 0 -0 -0 -0 nan
nan 0 0 -0 0 0 -0 -0 -0 -0 0 -1 -1 -0 -0 -0 0 0 -0 -0 -0 -0 -0 -0 -0 -0 0 -0 -0 -0 -1 -0 -1 -0 -0 -0 -0 -0 -0 -1 -0 -0 -0 -0 -0 0 nan
nan 0 0 0 0 -0 -0 -0 0 0 -0 -1 -1 -0 -0 -0 0 0 -0 -0 -0 -0 -0 0 -0 -0 -0 0 0 0 -0 -1 -1 -0 -0 -0 -0 -0 -0 -0 0 0 -1 -1 -0 -0 nan
nan 0 0 0 0 0 0 0 -0 -0 -1 -1 -1 -0 -0 -0 0 -0 -0 -0 -0 -0 -0 -0 -0 -0 -0 -1 -1 1 2 0 -1 -0 -0 -0 -0 -0 -0 -1 -0 -0 0 -0 -0 -0 nan
nan 0 0 0 0 0 0 -0 -0 -0 -0 -0 -0 -0 -0 -0 0 0 0 -0 -0 -0 -0 -0 -0 -0 -0 -1 -0 -1 0 -0 0 0 -0 -0 -0 -0 -0 -0 -1 -0 0 -0 -0 0 nan
nan -0 0 0 0 0 0 -0 -0 -0 -0 -0 -0 -0 -0 0 0 0 -0 -0 -0 -0 -0 -0 -0 -0 -0 -0 -0 -0 -0 -0 -0 0 -0 -0 -0 -0 -0 -0 -0 -0 0 -0 -0 -0 nan
nan -0 0 0 0 0 0 -0 -0 -0 -0 -0 -0 -0 -0 -0 0 0 0 0 0 -0 0 -0 -0 -0 -0 0 0 -0 -0 -0 -0 -0 -0 -0 -0 -0 -0 -0 -1 -0 0 0 0 0 nan
nan 0 0 0 0 0 -0 -0 -0 -0 -0 -0 -0 -0 -0 -0 -0 0 0 0 0 -0 -0 -0 -0 -0 -0 0 -0 -0 -0 -0 -0 -0 -0 -0 -0 -0 -0 -0 -0 -0 -0 0 0 -0 nan
nan nan nan nan nan nan nan nan nan nan nan nan nan nan nan nan nan nan nan nan nan nan nan nan nan nan nan nan nan nan nan nan nan nan nan nan nan nan nan nan nan nan nan nan nan nan nan
Wind_Speed
3 4 5 6 6 7 7 8 9 10 12 14 15 16 17 18 18 19 19 21 20 17 16 15 14 12 9 3 2 6 9 10 10 10 9 8 3 1 1 3 2 2 3 5 5 6 9
3 3 4 5 6 7 7 8 9 11 12 14 16 19 20 20 19 18 18 19 19 17 16 16 15 13 9 4 7 10 12 7 7 9 9 7 4 2 6 3 2 3 7 7 4 5 6
3 3 4 5 6 7 8 9 10 12 13 15 17 18 19 19 17 17 16 15 13 12 12 12 13 12 7 5 8 12 14 7 5 8 8 10 4 2 5 4 6 5 3 2 3 4 3
4 5 5 6 7 7 8 9 11 13 14 16 17 18 19 23 21 18 16 14 10 7 8 10 10 6 5 11 8 14 14 6 0 4 7 8 5 4 3 11 4 2 2 2 1 4 3
6 7 6 6 7 9 9 10 11 12 14 16 18 21 24 27 26 23 19 12 8 12 9 12 13 9 6 13 17 14 12 12 5 4 4 4 1 5 4 3 1 4 4 2 4 6 4
6 6 6 6 7 8 9 10 11 12 14 18 20 23 25 27 27 25 21 8 12 27 8 9 21 5 24 22 23 23 12 10 4 4 3 4 5 3 2 2 7 3 3 2 5 4 5
4 5 5 5 6 7 8 9 12 15 17 19 21 23 25 24 24 27 22 3 3 5 29 16 12 12 15 23 16 29 20 7 5 4 3 4 2 1 5 1 3 3 2 3 4 3 8
3 3 4 5 6 7 9 11 13 16 18 19 20 22 23 20 19 23 19 14 14 4 7 16 16 18 17 24 9 24 28 11 8 3 1 3 3 3 3 3 3 4 7 9 4 2 9
3 3 4 5 7 10 11 13 15 17 18 19 20 21 21 18 11 19 24 20 11 7 3 12 17 20 21 18 7 15 24 9 3 3 1 2 3 4 2 2 5 5 7 7 11 3 5
5 5 6 7 9 11 12 14 15 16 17 18 19 20 21 18 8 20 23 15 9 6 4 14 14 13 21 13 4 10 19 5 3 2 2 3 3 2 2 2 1 4 7 13 7 5 5
5 6 6 8 10 11 13 14 16 16 16 16 17 17 19 19 13 22 19 10 6 2 4 18 9 13 20 12 12 18 16 5 2 4 1 3 2 1 2 2 2 4 5 5 2 5 3
5 6 8 9 10 11 13 14 15 15 15 15 15 16 19 18 16 19 16 4 2 5 1 7 9 14 13 13 12 20 16 13 4 4 1 6 4 3 2 2 2 2 3 5 3 0 1
5 6 7 8 10 11 12 14 14 14 14 13 13 15 18 20 24 21 11 1 4 6 6 10 7 10 7 13 9 13 9 15 11 7 6 5 2 5 3 2 1 3 4 2 2 1 3
5 7 7 9 10 11 12 14 14 14 13 13 11 12 15 18 19 17 6 4 10 3 3 4 6 8 6 15 8 14 11 7 15 9 3 4 2 7 6 1 1 3 3 4 3 3 3
4 6 7 8 9 11 12 14 14 14 13 12 10 9 16 17 18 12 2 8 3 1 4 7 7 5 6 9 7 10 8 7 6 11 6 5 3 4 4 1 2 2 3 2 1 1 3
4 5 6 8 9 11 12 13 14 14 14 13 11 5 22 18 16 9 8 6 2 1 4 2 6 5 7 8 8 10 4 7 8 13 9 3 5 1 4 1 10 2 7 2 1 2 2
3 4 5 7 9 10 12 12 13 14 14 12 9 4 22 16 11 17 5 4 2 4 4 2 3 3 4 5 7 5 5 5 13 15 14 3 2 3 3 1 3 3 3 4 3 1 1
3 3 5 7 9 10 11 13 14 14 14 10 7 5 23 15 10 6 3 2 2 7 9 5 3 4 4 5 4 4 4 6 15 17 9 5 2 4 4 1 3 1 3 4 3 3 2
3 3 4 6 7 9 11 12 14 16 16 9 6 6 25 11 4 3 4 4 5 7 5 5 4 3 7 3 5 5 4 8 13 14 8 6 2 4 2 1 1 3 2 2 4 2 5
2 3 3 5 7 9 10 12 13 15 15 10 4 3 10 18 11 5 3 4 3 6 2 4 1 4 8 3 3 7 7 7 24 19 18 3 4 5 4 5 2 3 1 3 4 2 3
1 2 4 4 6 8 10 12 13 13 13 6 6 4 3 3 7 7 3 2 3 5 6 9 2 7 4 4 7 2 6 15 15 7 10 4 5 6 12 16 13 13 11 10 9 8 6
2 1 2 4 7 8 9 10 12 13 12 16 6 4 5 4 3 3 4 3 3 4 2 2 4 12 5 4 8 13 15 13 10 9 6 9 5 11 10 14 13 14 15 15 17 10 18
4 2 2 4 5 7 10 11 12 12 11 9 11 9 4 2 2 2 2 2 1 4 2 1 5 9 12 11 16 33 35 33 26 15 9 6 4 3 4 10 7 5 10 15 7 7 6
5 4 3 4 5 7 9 11 12 13 14 13 11 6 4 2 2 3 2 1 1 2 4 9 14 4 9 28 33 31 30 27 25 25 22 8 6 3 4 9 2 2 2 4 9 9 12
7 5 4 4 6 7 9 11 12 12 11 9 9 5 4 3 2 4 3 1 5 6 5 7 5 13 21 14 6 9 4 1 5 9 18 22 6 3 3 4 6 1 3 2 2 3 2
8 7 6 6 7 7 8 10 12 12 10 8 8 7 4 5 2 3 2 1 2 4 4 3 12 15 9 2 3 4 4 7 6 12 6 12 10 3 2 2 2 3 3 6 2 1 2
9 9 8 8 8 7 8 9 10 12 9 7 7 5 5 3 2 5 4 2 1 2 2 4 11 6 9 4 3 3 4 7 4 7 6 3 4 9 6 3 7 8 10 5 2 4 10
11 11 10 9 8 7 7 8 10 11 9 6 6 4 4 1 5 7 9 8 5 4 1 6 8 3 4 5 3 3 2 3 4 8 7 4 5 4 3 2 5 3 5 4 3 8 8
14 12 11 10 8 7 7 8 9 9 7 7 7 4 4 4 5 11 19 19 18 12 9 3 2 3 2 2 3 3 3 3 5 5 4 3 5 5 5 4 5 11 9 17 10 8 6
Wind_Direction
35 47 29 24 23 30 27 21 14 10 6 356 351 350 347 346 345 340 334 328 329 330 325 320 322 331 342 343 351 296 266 278 304 323 343 352 349 111 152 123 106 76 90 57 115 131 125
352 20 8 19 21 30 24 16 12 10 3 358 354 351 350 349 349 342 336 330 327 328 326 323 326 336 5 58 352 327 305 297 332 358 11 10 354 309 114 67 41 91 107 120 121 126 139
337 5 360 22 30 31 25 17 11 9 3 357 357 354 351 350 356 349 343 338 331 326 328 323 325 346 19 46 358 7 340 319 325 1 20 17 26 74 119 103 122 134 106 137 153 163 136
52 42 24 30 31 31 23 16 13 9 5 359 356 356 358 357 2 0 350 343 338 344 355 355 4 3 75 22 29 356 22 64 342 359 14 16 48 108 77 117 56 73 70 266 121 175 145
49 45 43 39 32 21 18 16 13 11 8 2 0 1 2 359 358 3 358 357 40 31 23 50 18 94 20 4 354 7 7 19 56 56 8 358 3 82 102 94 80 25 273 249 300 198 158
60 46 47 46 41 24 18 15 11 13 13 8 6 4 3 0 356 4 7 21 79 41 71 58 30 68 22 351 31 25 14 14 32 10 38 54 60 77 71 187 264 271 269 252 268 188 193
52 51 45 46 49 36 22 21 15 10 15 12 8 5 3 1 1 3 13 38 58 57 57 67 53 50 350 11 34 28 23 40 40 62 44 28 58 247 250 166 94 112 187 266 245 217 207
78 65 50 46 46 41 27 22 17 12 12 12 8 7 3 4 13 6 19 66 49 52 70 49 41 22 11 1 354 21 23 38 37 45 15 19 300 241 172 197 247 264 280 277 263 179 215
90 78 68 50 40 35 26 20 18 11 10 9 7 6 7 6 17 16 35 45 33 49 75 25 26 11 5 349 10 3 3 355 32 31 49 177 248 123 138 286 296 302 273 261 262 153 212
91 75 55 43 35 32 22 17 18 11 8 6 7 7 9 14 14 9 24 18 21 55 80 355 352 9 352 360 359 348 1 350 327 324 326 259 328 228 194 254 219 312 286 265 225 193 268
82 62 51 40 33 28 20 16 17 11 6 5 8 10 12 14 20 16 351 352 4 26 49 328 341 343 -0 30 321 348 8 356 282 312 338 274 294 331 310 199 200 322 348 305 255 170 159
73 53 39 32 27 24 20 16 14 11 7 5 8 10 11 12 9 0 349 353 19 42 345 344 347 344 1 356 355 340 2 27 19 322 329 264 281 261 259 120 229 142 50 34 44 219 214
67 51 39 31 25 20 16 14 13 11 5 6 7 12 9 4 352 352 352 46 41 77 327 345 339 337 343 351 348 357 350 38 32 1 356 313 284 329 29 232 173 76 44 327 278 214 239
60 45 32 28 24 17 14 12 10 9 3 3 1 11 8 356 347 348 1 59 67 268 336 316 330 332 40 2 352 345 6 33 33 26 299 329 325 358 352 16 266 65 116 140 292 328 326
61 45 33 26 21 17 14 11 8 6 5 0 357 12 7 359 356 356 23 52 137 182 313 325 319 25 360 354 349 0 354 20 38 30 360 339 296 323 12 349 354 111 73 38 185 161 264
61 47 31 24 20 17 15 11 10 7 5 3 359 7 11 1 2 20 68 105 98 247 326 344 27 19 355 336 348 352 332 36 5 8 343 257 297 282 298 289 45 197 145 43 51 285 261
67 41 29 24 24 18 16 14 12 9 7 5 8 44 1 360 23 56 78 80 107 10 14 21 25 354 353 343 328 322 308 56 14 353 345 301 193 303 301 336 188 145 123 76 108 300 184
71 46 34 23 25 21 17 15 15 16 14 16 40 46 3 18 51 45 59 56 35 6 25 27 89 49 0 323 317 312 316 310 8 344 344 330 285 275 265 260 298 308 188 151 169 184 202
79 51 44 33 29 27 22 20 20 22 24 39 66 30 31 47 76 38 52 55 66 24 26 22 34 44 352 301 315 279 320 302 355 348 355 340 267 303 235 270 339 249 216 113 103 80 188
97 54 44 38 32 28 27 25 28 29 27 45 76 39 36 54 71 88 76 44 35 29 96 3 341 64 351 317 249 294 302 307 331 321 314 312 261 234 259 309 325 308 257 136 78 194 157
147 66 47 43 35 35 34 31 32 34 34 65 65 76 49 25 35 58 80 74 25 12 3 17 55 36 342 298 308 281 316 327 313 315 341 13 278 277 281 286 279 266 257 181 195 189 202
184 93 68 48 39 41 39 37 36 38 47 64 89 106 83 84 53 70 35 51 57 330 316 13 13 336 330 259 277 299 302 297 274 302 339 340 277 315 297 285 260 251 246 234 231 224 235
182 155 96 70 61 52 47 42 41 42 49 76 89 99 124 32 58 90 57 75 55 350 293 249 358 327 306 303 304 289 276 262 248 263 290 300 286 315 283 311 309 272 239 229 204 213 188
187 178 135 93 81 61 56 48 45 46 57 78 90 92 95 100 80 89 108 338 287 317 276 295 310 263 306 304 302 290 271 259 249 245 226 238 244 308 291 299 252 262 289 211 218 246 215
185 169 152 116 95 73 59 52 48 48 58 65 74 73 86 106 92 91 92 339 325 313 276 289 310 311 320 319 311 323 319 246 224 219 210 205 204 261 277 286 293 331 34 346 265 346 324
184 177 163 133 113 86 65 53 47 44 52 58 65 63 78 121 138 149 92 342 307 310 308 283 323 337 348 332 338 325 315 349 332 343 168 186 226 271 260 283 304 283 319 333 191 313 338
187 177 165 143 124 102 77 55 37 37 47 54 67 52 56 78 133 194 204 202 238 292 280 317 339 336 3 9 357 340 307 328 319 317 355 198 187 226 249 282 281 266 316 324 18 312 329
187 172 161 148 132 114 89 59 35 25 40 52 65 40 8 340 261 240 221 215 218 236 248 321 333 6 351 25 7 335 306 310 301 301 304 280 187 180 202 225 264 325 352 2 275 312 324
188 175 164 154 142 122 93 64 39 21 22 51 65 51 352 309 275 279 277 261 255 251 261 249 247 320 285 320 11 319 293 291 306 302 287 296 4 314 234 230 278 297 271 314 280 290 344
Height
1549 1547 1547 1546 1544 1543 1542 1541 1541 1540 1538 1536 1534 1531 1529 1526 1523 1519 1515 1510 1508 1505 1503 1501 1500 1499 1500 1501 1502 1501 1501 1500 1500 1500 1498 1498 1498 1498 1500 1502 1503 1503 1508 1509 1510 1511 1512
1549 1547 1547 1546 1545 1543 1542 1542 1541 1539 1538 1535 1533 1531 1527 1524 1521 1517 1512 1508 1505 1503 1500 1499 1498 1498 1499 1502 1502 1500 1498 1500 1500 1499 1499 1498 1498 1498 1500 1503 1503 1508 1508 1511 1512 1513 1514
1548 1547 1547 1546 1545 1544 1542 1542 1541 1539 1538 1536 1533 1530 1527 1523 1519 1515 1510 1506 1503 1501 1499 1498 1498 1498 1499 1504 1502 1501 1497 1498 1499 1499 1498 1498 1498 1499 1501 1504 1507 1508 1509 1510 1512 1512 1513
1548 1547 1547 1546 1546 1544 1543 1543 1541 1540 1538 1536 1533 1530 1525 1521 1517 1513 1508 1505 1502 1500 1499 1498 1498 1498 1500 1503 1502 1501 1499 1497 1497 1499 1499 1498 1498 1498 1501 1506 1508 1508 1510 1509 1510 1512 1514
1548 1547 1547 1546 1546 1545 1544 1543 1542 1540 1538 1536 1533 1528 1524 1518 1514 1511 1506 1502 1502 1501 1499 1499 1500 1498 1505 1504 1501 1500 1499 1498 1497 1498 1498 1498 1498 1501 1504 1506 1509 1513 1507 1513 1509 1512 1513
1548 1548 1547 1546 1545 1546 1545 1544 1543 1540 1538 1535 1531 1527 1523 1518 1513 1510 1505 1502 1503 1501 1500 1500 1502 1505 1509 1508 1504 1501 1500 1499 1497 1497 1498 1498 1499 1502 1506 1504 1508 1507 1510 1513 1512 1509 1512
1548 1548 1548 1547 1546 1546 1546 1545 1543 1540 1537 1534 1531 1527 1523 1519 1514 1509 1506 1503 1506 1506 1505 1514 1519 1518 1516 1510 1506 1503 1499 1499 1498 1498 1500 1501 1502 1505 1503 1506 1508 1510 1512 1511 1506 1507 1509
1549 1549 1549 1548 1547 1547 1546 1544 1542 1540 1537 1534 1531 1528 1524 1520 1516 1511 1509 1505 1513 1517 1517 1518 1519 1518 1514 1512 1507 1506 1504 1503 1502 1503 1502 1504 1506 1503 1504 1505 1506 1508 1508 1505 1504 1506 1508
1551 1551 1549 1549 1548 1547 1545 1544 1542 1540 1538 1535 1532 1528 1524 1520 1517 1515 1512 1514 1516 1514 1517 1521 1521 1519 1517 1514 1511 1509 1508 1504 1504 1503 1503 1506 1503 1502 1504 1504 1505 1505 1506 1503 1499 1504 1506
1551 1551 1550 1550 1548 1547 1546 1545 1542 1541 1539 1536 1532 1529 1525 1522 1521 1517 1515 1518 1516 1516 1520 1533 1527 1526 1521 1514 1513 1511 1510 1509 1505 1505 1503 1504 1502 1502 1503 1504 1504 1506 1499 1496 1497 1500 1498
1552 1551 1551 1550 1549 1548 1547 1545 1543 1542 1540 1537 1533 1531 1527 1523 1524 1520 1522 1518 1517 1517 1534 1540 1536 1533 1527 1526 1525 1514 1511 1507 1507 1505 1506 1506 1503 1501 1502 1501 1502 1500 1499 1498 1499 1498 1500
1552 1552 1552 1551 1550 1548 1547 1546 1545 1543 1540 1538 1535 1532 1529 1526 1525 1523 1520 1518 1518 1524 1548 1545 1543 1539 1533 1529 1527 1520 1515 1511 1510 1507 1505 1504 1501 1500 1498 1499 1500 1499 1498 1501 1504 1503 1504
1553 1552 1552 1552 1551 1549 1549 1547 1545 1543 1541 1538 1536 1533 1530 1528 1525 1521 1519 1519 1527 1548 1558 1555 1551 1546 1542 1538 1532 1529 1525 1522 1525 1519 1514 1505 1500 1500 1499 1500 1500 1498 1499 1510 1507 1505 1502
1554 1554 1553 1553 1552 1551 1549 1548 1546 1544 1542 1539 1537 1535 1533 1530 1526 1521 1519 1521 1549 1568 1562 1559 1555 1550 1548 1544 1538 1535 1530 1529 1529 1528 1525 1519 1507 1505 1502 1501 1500 1503 1503 1519 1520 1511 1505
1554 1554 1554 1554 1553 1551 1550 1549 1547 1545 1543 1540 1538 1536 1534 1530 1525 1521 1521 1550 1568 1565 1564 1562 1556 1553 1552 1550 1549 1541 1538 1535 1536 1536 1537 1530 1513 1507 1504 1502 1503 1506 1511 1513 1515 1521 1519
1554 1555 1555 1555 1554 1553 1551 1550 1548 1545 1542 1540 1538 1536 1534 1531 1527 1523 1528 1560 1564 1565 1564 1563 1561 1559 1558 1555 1550 1547 1542 1541 1539 1539 1537 1533 1529 1510 1506 1504 1505 1503 1509 1518 1524 1516 1515
1555 1556 1556 1556 1555 1554 1552 1551 1549 1546 1543 1540 1538 1537 1537 1532 1530 1528 1553 1562 1565 1565 1564 1564 1563 1562 1562 1561 1556 1551 1545 1543 1541 1537 1533 1530 1530 1512 1509 1507 1508 1510 1514 1522 1525 1530 1520
1556 1556 1557 1557 1556 1555 1554 1552 1549 1547 1543 1541 1540 1542 1540 1534 1536 1550 1560 1564 1566 1567 1565 1565 1566 1565 1565 1564 1560 1554 1550 1547 1545 1543 1538 1532 1528 1521 1508 1508 1508 1507 1509 1515 1515 1523 1530
1556 1557 1557 1557 1557 1556 1554 1552 1550 1547 1544 1542 1544 1548 1546 1539 1554 1562 1565 1566 1568 1569 1569 1568 1567 1567 1567 1564 1563 1555 1551 1546 1546 1544 1539 1538 1528 1520 1508 1510 1509 1508 1509 1513 1518 1519 1519
1556 1557 1558 1558 1558 1557 1555 1554 1551 1549 1546 1545 1548 1553 1553 1552 1560 1564 1567 1571 1571 1571 1571 1570 1569 1568 1567 1563 1561 1556 1554 1548 1546 1544 1539 1537 1527 1522 1518 1513 1512 1511 1510 1514 1515 1515 1515
1556 1557 1558 1559 1559 1558 1556 1555 1553 1551 1549 1548 1552 1562 1564 1568 1567 1568 1569 1573 1574 1573 1572 1570 1570 1572 1573 1568 1561 1557 1553 1552 1544 1542 1539 1537 1532 1522 1517 1511 1509 1507 1505 1508 1515 1512 1512
1556 1558 1559 1559 1560 1559 1558 1557 1555 1553 1551 1550 1556 1562 1566 1569 1569 1570 1572 1575 1576 1575 1574 1573 1573 1572 1571 1569 1564 1560 1558 1557 1553 1541 1541 1540 1530 1521 1512 1507 1503 1502 1495 1493 1496 1502 1500
1556 1558 1560 1560 1560 1560 1559 1558 1557 1555 1554 1554 1559 1562 1565 1572 1571 1572 1577 1578 1577 1576 1574 1574 1574 1573 1566 1563 1562 1555 1549 1546 1545 1543 1544 1546 1534 1522 1511 1503 1499 1500 1492 1484 1487 1488 1487
1556 1558 1560 1561 1561 1561 1561 1560 1559 1558 1557 1558 1561 1563 1564 1573 1573 1574 1577 1578 1577 1577 1576 1573 1572 1572 1566 1561 1552 1538 1530 1530 1533 1534 1542 1538 1536 1532 1516 1506 1500 1480 1479 1478 1479 1476 1480
1556 1558 1561 1562 1562 1562 1563 1563 1562 1561 1561 1562 1562 1564 1566 1572 1575 1576 1576 1577 1577 1576 1574 1571 1569 1569 1563 1557 1550 1533 1521 1518 1518 1524 1528 1536 1537 1529 1516 1507 1491 1476 1478 1478 1477 1474 1474
1556 1558 1561 1562 1563 1564 1565 1564 1564 1564 1563 1564 1564 1565 1567 1570 1575 1575 1576 1576 1577 1575 1573 1570 1569 1565 1562 1560 1557 1547 1537 1534 1524 1523 1525 1532 1535 1532 1518 1512 1499 1481 1477 1478 1476 1478 1473
1556 1558 1561 1562 1564 1565 1566 1566 1565 1565 1565 1565 1566 1567 1568 1570 1572 1574 1574 1575 1576 1575 1574 1573 1570 1565 1563 1561 1557 1556 1550 1543 1537 1534 1533 1530 1533 1530 1524 1513 1495 1480 1477 1476 1479 1480 1471
1555 1558 1561 1563 1565 1566 1567 1568 1567 1566 1566 1567 1568 1569 1570 1570 1569 1570 1571 1572 1573 1574 1574 1573 1571 1568 1566 1562 1561 1560 1555 1549 1547 1538 1535 1524 1515 1518 1518 1511 1500 1482 1477 1480 1478 1474 1472
1555 1558 1561 1563 1566 1567 1568 1569 1568 1568 1566 1567 1568 1569 1570 1570 1569 1569 1567 1567 1569 1571 1573 1574 1573 1572 1569 1567 1567 1564 1557 1552 1547 1540 1535 1523 1526 1523 1508 1495 1485 1482 1480 1477 1475 1475 1473